Temp
61 60 60 60 60 60 60 60 60 61 61 61 61 61 60 60 59 59 54 67 68 72 72 76 77 77 77 71 74 73 59 56 60 63 68 77 75 80 84 81 84 90 88 86 87
60 60 60 60 60 59 59 59 59 60 60 60 61 60 60 59 54 55 68 74 73 73 74 71 70 74 66 67 67 63 57 60 70 72 71 76 77 79 77 76 77 81 86 91 87
59 59 60 60 60 59 59 59 59 59 60 60 60 60 59 59 54 67 75 72 72 72 75 75 75 72 63 66 65 65 59 67 72 76 78 76 77 82 78 70 74 76 81 85 84
59 59 59 59 59 59 59 59 59 59 60 60 59 59 59 56 52 71 73 72 72 76 75 73 70 60 57 58 67 61 70 72 74 78 77 75 79 77 79 76 83 84 82 81 80
58 58 58 59 58 58 58 58 58 58 59 59 59 59 56 54 60 74 74 73 74 74 72 70 66 63 57 63 66 63 68 74 76 76 76 77 76 76 76 81 86 83 83 80 79
58 58 58 58 58 58 58 58 58 58 58 59 59 59 53 51 78 77 76 74 77 73 71 72 70 71 63 62 59 67 68 69 73 72 72 71 74 73 77 80 83 82 79 81 80
58 58 58 58 58 58 58 58 57 58 58 59 60 61 58 58 80 78 79 75 78 79 75 78 77 70 66 61 68 68 61 65 68 67 68 70 66 69 74 79 77 78 77 79 79
57 57 57 57 57 58 58 57 57 58 58 59 60 58 51 78 77 77 78 78 81 81 79 80 78 68 62 67 66 59 59 49 61 68 70 65 57 70 74 74 72 76 77 77 75
57 56 56 57 57 58 57 57 57 60 60 60 53 53 57 78 77 82 82 79 81 81 79 85 71 62 63 55 50 52 47 50 57 68 68 65 61 69 74 73 69 71 71 75 73
57 56 56 57 57 57 56 56 59 57 59 63 66 55 64 70 79 82 83 83 77 75 72 69 62 54 52 48 39 47 49 55 56 65 67 64 63 70 71 71 69 66 69 70 71
56 56 56 56 56 56 55 58 53 52 60 59 64 66 72 80 85 79 82 78 74 68 55 62 51 47 53 59 60 59 56 55 61 67 65 61 60 64 67 66 65 67 68 68 70
56 56 56 56 56 56 52 57 67 68 58 70 70 72 78 79 72 76 81 67 64 55 61 55 50 61 66 65 62 60 56 52 59 65 65 61 59 63 65 64 64 65 65 67 67
55 55 55 56 55 52 58 67 77 73 55 66 74 74 75 76 70 71 75 69 62 58 58 52 59 69 67 63 60 57 53 53 54 61 64 60 55 58 63 66 70 71 67 67 66
55 55 55 54 55 65 66 77 76 72 45 61 68 73 77 74 67 79 79 71 64 58 60 57 65 65 62 60 60 50 61 61 58 53 41 56 38 51 58 60 66 70 71 65 67
55 55 55 54 53 60 72 75 72 65 33 67 70 80 77 68 71 72 80 71 61 61 59 55 59 59 58 60 64 55 63 56 56 51 45 49 39 46 57 58 62 67 70 65 66
55 55 55 60 55 64 72 73 66 45 36 63 70 67 66 69 70 74 71 73 70 61 61 59 67 63 60 65 64 65 56 52 50 44 34 46 43 46 51 58 63 63 65 67 67
54 54 52 61 59 72 74 63 43 38 68 61 63 68 63 63 66 68 64 59 54 46 49 54 52 58 61 52 57 53 46 30 28 29 32 49 45 47 56 64 66 65 63 65 65
54 53 54 63 69 71 64 50 35 56 60 68 65 63 58 63 63 65 63 56 63 54 45 38 36 54 52 50 45 42 43 33 25 25 33 47 36 46 60 65 65 67 64 63 63
52 59 60 66 68 67 54 39 44 56 65 61 61 55 56 61 60 59 57 56 58 56 43 43 41 53 53 55 54 47 37 46 37 38 30 37 45 56 61 62 65 65 63 61 62
51 56 63 73 71 61 47 45 52 65 66 62 50 56 48 53 53 53 53 56 54 59 58 47 37 54 59 60 57 50 53 37 33 28 24 36 41 41 51 56 62 62 61 60 62
51 55 68 75 68 53 41 50 60 70 67 59 54 52 53 51 52 51 52 57 59 56 55 49 42 42 51 47 43 43 41 41 38 35 27 26 34 49 51 54 56 58 61 58 60
51 49 69 69 50 51 48 60 58 63 66 62 59 56 52 52 49 49 49 54 60 57 46 43 36 34 43 54 52 46 41 37 31 29 33 30 32 57 54 56 59 58 62 60 63
47 53 69 66 44 49 56 60 61 61 60 59 56 57 56 50 42 50 52 61 60 55 48 43 36 28 35 43 46 42 44 43 38 36 31 28 31 58 55 55 56 56 60 62 60
49 49 57 58 58 51 50 53 54 63 61 61 58 57 52 49 50 46 51 60 61 59 57 51 39 35 27 36 39 36 43 45 41 32 35 37 41 50 53 52 55 57 60 58 56
52 50 53 46 49 50 52 54 53 53 59 57 52 53 50 41 45 45 50 53 58 55 51 44 35 40 42 46 47 46 47 46 43 42 35 43 43 47 49 51 50 52 54 55 56
48 47 49 48 52 50 50 51 53 55 52 50 48 53 51 43 46 42 45 44 43 49 47 45 33 39 38 47 48 44 48 49 46 46 42 44 45 52 50 52 51 51 54 53 57
54 54 47 47 49 47 47 49 52 54 56 57 54 49 47 50 52 50 48 48 47 43 41 40 36 33 29 43 43 36 43 44 45 46 43 36 43 49 48 49 47 50 53 54 57
MSLP
1019.13 1018.77 1018.43 1018.16 1017.85 1017.43 1017.12 1016.82 1016.57 1016.26 1016.01 1015.79 1015.63 1015.43 1015.17 1014.87 1014.41 1013.60 1012.67 1010.29 1009.97 1009.59 1009.90 1009.87 1009.53 1009.14 1009.23 1009.51 1009.25 1009.15 1009.29 1008.44 1007.95 1007.45 1006.05 1004.55 1004.05 1003.00 1002.47 1002.62 1002.72 1002.73 1002.89 1003.79 1003.83
1018.92 1018.53 1018.18 1017.87 1017.61 1017.34 1016.98 1016.66 1016.34 1016.02 1015.77 1015.59 1015.41 1015.27 1015.09 1014.85 1014.38 1012.64 1010.00 1009.42 1009.44 1009.57 1009.84 1009.60 1009.30 1009.01 1009.24 1008.97 1008.99 1008.82 1008.45 1007.93 1007.32 1006.55 1005.63 1004.29 1003.59 1003.66 1003.41 1002.73 1002.93 1003.02 1002.75 1003.13 1003.61
1018.88 1018.39 1017.90 1017.55 1017.24 1017.07 1016.78 1016.40 1016.06 1015.75 1015.48 1015.29 1015.16 1015.04 1014.91 1014.76 1013.51 1009.52 1007.65 1009.21 1009.28 1009.47 1009.37 1009.23 1008.97 1008.72 1009.02 1008.73 1008.55 1008.28 1007.46 1007.65 1006.76 1005.82 1005.06 1004.06 1003.04 1002.86 1003.26 1003.05 1002.99 1003.07 1003.08 1003.37 1004.08
1018.66 1018.20 1017.72 1017.32 1017.01 1016.75 1016.47 1016.16 1015.84 1015.48 1015.22 1015.08 1014.95 1014.81 1014.58 1014.45 1011.99 1008.59 1008.43 1008.89 1009.16 1009.08 1009.29 1008.95 1008.71 1008.69 1008.64 1008.39 1007.79 1007.44 1006.93 1006.54 1005.76 1005.07 1004.42 1003.75 1003.15 1002.45 1002.59 1002.50 1002.60 1002.97 1003.28 1003.71 1004.31
1018.39 1017.97 1017.48 1016.99 1016.65 1016.30 1016.00 1015.76 1015.54 1015.33 1015.12 1014.97 1014.81 1014.64 1014.08 1013.31 1010.28 1008.52 1008.73 1008.96 1008.95 1009.14 1008.85 1008.51 1008.14 1007.98 1008.00 1007.55 1007.22 1006.73 1006.36 1005.58 1004.85 1004.30 1003.84 1003.44 1002.79 1002.64 1002.16 1002.56 1002.56 1002.54 1003.18 1003.71 1004.16
1018.22 1017.73 1017.25 1016.77 1016.32 1015.97 1015.66 1015.43 1015.23 1015.04 1014.89 1014.82 1014.70 1014.57 1013.99 1011.69 1007.68 1007.85 1008.35 1008.78 1008.56 1008.59 1007.95 1007.61 1007.24 1006.97 1007.05 1007.06 1007.11 1006.43 1005.83 1005.09 1004.43 1003.92 1003.54 1003.30 1002.88 1002.76 1001.92 1002.28 1002.73 1002.79 1002.95 1003.11 1003.82
1018.08 1017.48 1016.96 1016.49 1016.04 1015.65 1015.35 1015.10 1014.87 1014.68 1014.64 1014.65 1014.64 1014.29 1012.86 1009.72 1007.60 1007.82 1007.77 1007.95 1007.72 1007.65 1007.41 1006.87 1006.89 1007.11 1007.33 1007.43 1006.64 1006.48 1006.04 1005.18 1004.55 1004.03 1003.58 1003.25 1003.23 1002.60 1002.44 1002.46 1002.48 1002.80 1003.03 1003.17 1003.49
1017.89 1017.30 1016.71 1016.18 1015.71 1015.29 1014.99 1014.69 1014.48 1014.30 1014.30 1014.36 1014.44 1013.99 1011.49 1007.46 1007.15 1007.80 1007.37 1007.30 1007.17 1006.92 1006.96 1006.89 1006.92 1007.39 1007.80 1007.69 1007.18 1007.18 1006.56 1005.98 1004.90 1004.31 1003.71 1003.83 1002.92 1002.56 1002.38 1002.77 1002.85 1002.84 1002.88 1003.07 1003.46
1017.70 1017.07 1016.43 1015.90 1015.46 1014.96 1014.64 1014.27 1013.95 1013.51 1013.75 1014.10 1014.37 1013.36 1009.72 1006.73 1006.77 1006.42 1006.50 1006.70 1006.60 1006.56 1006.66 1006.79 1007.12 1007.81 1008.16 1008.32 1008.14 1007.47 1007.19 1006.37 1005.08 1004.16 1003.80 1003.65 1002.66 1002.55 1002.30 1002.79 1002.84 1002.81 1002.83 1002.90 1003.17
1017.47 1016.85 1016.25 1015.64 1015.18 1014.76 1014.23 1013.73 1013.43 1013.53 1013.53 1013.70 1012.85 1012.48 1008.80 1006.34 1005.75 1006.03 1006.16 1006.35 1006.47 1006.51 1006.83 1006.95 1007.39 1007.86 1008.25 1008.58 1008.27 1007.64 1006.78 1005.77 1004.77 1003.62 1003.19 1002.99 1002.26 1002.25 1002.35 1002.72 1002.81 1002.92 1002.74 1003.20 1003.68
1017.41 1016.65 1015.96 1015.42 1014.89 1014.52 1013.97 1013.12 1013.54 1013.03 1012.18 1010.91 1009.95 1008.51 1006.83 1005.50 1005.29 1005.85 1005.89 1006.21 1006.55 1007.04 1007.42 1007.25 1007.68 1007.72 1007.42 1007.07 1006.77 1006.55 1006.08 1005.29 1004.20 1003.40 1003.08 1002.65 1001.51 1001.73 1002.06 1002.28 1002.34 1002.54 1002.96 1003.15 1003.47
1017.31 1016.55 1015.75 1015.06 1014.64 1014.28 1014.40 1012.97 1010.47 1009.86 1009.02 1008.47 1007.85 1007.16 1006.05 1005.48 1005.35 1005.41 1005.77 1006.45 1006.79 1007.32 1007.30 1007.48 1007.18 1006.53 1006.06 1005.86 1005.68 1005.56 1005.39 1004.98 1003.99 1003.47 1003.35 1003.08 1002.37 1001.69 1001.76 1002.02 1002.34 1002.76 1002.86 1003.02 1003.41
1017.07 1016.37 1015.62 1014.75 1014.02 1013.89 1012.94 1011.22 1009.14 1008.80 1008.92 1006.44 1005.53 1004.96 1004.89 1005.21 1005.16 1005.09 1005.44 1005.95 1006.61 1007.02 1007.12 1007.00 1006.35 1005.55 1005.21 1004.93 1004.91 1005.04 1005.15 1004.86 1004.67 1004.21 1003.69 1003.74 1003.13 1002.50 1002.10 1002.02 1002.02 1001.98 1002.54 1002.77 1003.06
1016.85 1016.12 1015.54 1014.63 1013.82 1012.43 1011.21 1009.30 1008.78 1008.87 1008.77 1005.61 1004.18 1003.94 1004.10 1004.66 1004.68 1004.47 1004.67 1005.40 1005.97 1006.44 1006.63 1006.31 1005.62 1005.15 1004.68 1004.48 1004.67 1004.78 1004.95 1005.08 1005.48 1005.19 1005.26 1004.53 1004.36 1003.30 1002.68 1002.19 1002.12 1001.72 1001.85 1002.38 1002.67
1016.66 1015.88 1015.17 1015.39 1014.15 1012.37 1009.77 1008.87 1008.83 1009.11 1007.93 1004.45 1003.70 1003.44 1003.57 1004.39 1003.61 1003.80 1003.92 1004.46 1005.04 1005.58 1006.27 1005.71 1005.38 1005.12 1004.76 1004.38 1004.34 1004.82 1005.09 1005.66 1006.15 1006.51 1005.98 1005.31 1005.33 1003.51 1002.88 1002.30 1001.58 1001.05 1000.90 1001.78 1002.20
1016.27 1015.64 1015.11 1013.23 1013.80 1011.41 1010.13 1009.30 1009.18 1009.39 1006.43 1003.84 1003.46 1003.40 1003.69 1003.58 1003.56 1003.26 1003.63 1003.89 1004.44 1005.39 1005.76 1005.72 1005.38 1005.31 1005.36 1004.99 1005.14 1004.87 1005.54 1006.37 1007.13 1007.69 1007.38 1006.13 1006.05 1003.81 1003.27 1002.26 1001.35 1001.05 1000.52 1001.19 1002.00
1015.40 1014.62 1014.95 1013.74 1012.08 1010.44 1010.13 1009.80 1009.86 1008.17 1004.48 1004.32 1003.78 1003.51 1003.67 1003.67 1003.37 1003.15 1003.44 1004.10 1004.84 1005.67 1005.75 1006.09 1006.55 1005.99 1006.47 1006.06 1006.42 1006.84 1007.33 1008.53 1009.02 1008.94 1007.77 1007.06 1006.46 1003.64 1003.04 1001.98 1000.48 1000.34 1000.42 1000.90 1001.79
1014.48 1013.13 1012.75 1012.23 1010.97 1010.49 1010.58 1010.63 1009.72 1006.88 1005.24 1004.69 1004.55 1004.57 1004.64 1004.22 1003.95 1003.45 1003.00 1003.78 1004.32 1005.94 1006.67 1007.78 1008.15 1006.83 1007.53 1007.54 1008.29 1009.24 1010.27 1010.42 1010.02 1009.98 1008.84 1007.88 1006.13 1004.08 1002.69 1001.87 999.30 998.99 1000.02 1000.91 1001.88
1014.01 1012.65 1012.06 1010.74 1010.82 1010.84 1011.19 1010.63 1008.59 1006.75 1005.69 1005.32 1005.32 1005.15 1005.02 1004.88 1005.09 1004.68 1004.61 1004.64 1005.11 1006.16 1007.77 1007.88 1008.26 1008.23 1007.83 1007.49 1007.95 1008.56 1010.37 1009.61 1010.72 1010.74 1010.37 1008.24 1005.90 1004.00 1003.16 1002.38 1000.98 1000.62 1001.13 1001.86 1002.36
1014.69 1012.87 1010.84 1009.57 1009.98 1010.59 1011.07 1010.11 1008.53 1006.81 1006.21 1006.07 1006.37 1006.28 1006.37 1006.52 1006.46 1006.14 1005.82 1006.18 1006.54 1007.03 1007.73 1008.99 1008.96 1007.98 1007.04 1007.16 1007.24 1008.18 1008.74 1010.51 1011.54 1011.30 1010.19 1008.00 1006.16 1004.78 1003.99 1003.74 1002.84 1002.65 1002.10 1002.33 1002.45
1014.63 1012.56 1009.66 1009.12 1009.76 1010.74 1010.76 1009.44 1007.73 1006.50 1006.15 1006.41 1006.74 1007.04 1007.37 1007.29 1007.17 1006.99 1006.80 1006.74 1007.10 1007.68 1008.51 1009.27 1010.06 1009.36 1008.17 1007.61 1007.88 1008.52 1009.14 1010.40 1011.58 1010.60 1009.83 1008.81 1006.49 1004.89 1004.51 1004.22 1003.66 1003.69 1003.77 1002.99 1002.83
1015.56 1012.98 1009.47 1009.47 1010.42 1010.11 1009.91 1008.92 1007.92 1007.03 1006.47 1006.51 1006.86 1007.42 1007.83 1008.05 1007.84 1007.67 1007.39 1007.09 1007.25 1007.87 1008.70 1010.26 1010.89 1010.19 1009.19 1007.94 1008.52 1009.17 1010.15 1011.65 1012.10 1011.04 1009.66 1009.02 1006.51 1004.84 1004.24 1004.11 1003.93 1004.79 1003.50 1003.72 1004.35
1016.45 1013.00 1009.31 1009.52 1010.38 1010.34 1009.50 1009.05 1008.71 1007.53 1007.16 1007.17 1007.68 1008.14 1008.51 1008.77 1008.75 1007.92 1007.58 1007.13 1007.44 1007.93 1008.87 1010.15 1010.42 1010.50 1009.30 1008.81 1009.15 1009.39 1009.74 1010.32 1010.94 1011.18 1010.36 1009.45 1007.04 1005.23 1004.69 1004.86 1004.45 1004.49 1004.27 1004.43 1004.80
1017.09 1013.67 1011.16 1010.50 1010.90 1011.34 1010.70 1009.82 1008.93 1008.23 1007.66 1007.62 1008.06 1008.55 1008.88 1008.81 1008.76 1008.52 1007.88 1007.20 1007.66 1008.09 1008.98 1009.60 1010.30 1010.65 1010.42 1009.61 1009.17 1008.82 1008.71 1008.94 1010.15 1010.14 1009.14 1008.15 1006.90 1005.83 1004.91 1004.36 1004.39 1004.34 1004.05 1005.36 1005.24
1016.83 1014.71 1013.96 1012.87 1012.27 1012.34 1011.44 1010.36 1009.44 1008.57 1008.38 1008.55 1008.92 1009.32 1009.43 1009.45 1009.24 1008.96 1008.54 1008.15 1008.08 1008.54 1009.01 1009.72 1010.34 1010.49 1010.16 1009.40 1008.57 1008.01 1007.75 1008.02 1008.30 1008.35 1008.07 1007.24 1006.38 1005.70 1006.28 1006.05 1005.70 1005.09 1005.12 1005.08 1004.97
1017.45 1016.74 1015.95 1014.97 1013.78 1013.10 1011.94 1010.84 1010.04 1009.21 1009.43 1009.43 1009.57 1009.52 1009.68 1009.88 1009.67 1009.47 1009.44 1009.39 1009.23 1009.17 1009.54 1009.85 1010.50 1010.59 1010.06 1009.28 1008.66 1008.35 1007.48 1006.90 1007.38 1007.47 1007.35 1007.18 1006.40 1005.82 1006.01 1006.36 1005.91 1005.52 1005.19 1005.17 1004.93
1018.41 1017.72 1017.10 1015.82 1014.79 1014.01 1012.90 1012.06 1010.94 1009.99 1009.79 1009.73 1009.79 1009.93 1009.82 1009.79 1009.57 1009.56 1009.53 1009.68 1009.70 1009.83 1010.04 1010.29 1010.68 1010.96 1010.23 1009.60 1008.97 1008.26 1008.07 1007.64 1007.85 1008.00 1008.27 1007.36 1007.33 1006.89 1006.21 1006.21 1005.88 1005.62 1005.30 1004.99 1004.75
Wind_Speed
17 17 17 18 17 16 16 16 15 14 14 14 14 14 14 15 17 9 7 11 8 17 2 6 8 11 10 8 8 6 9 12 15 17 16 20 12 5 7 5 4 10 5 9 8
19 18 17 16 17 16 17 16 16 15 14 14 14 13 13 14 8 11 16 12 9 9 4 8 9 10 6 6 6 7 9 17 10 13 15 20 16 7 4 4 4 5 4 1 7
19 19 18 17 17 18 18 17 16 15 15 14 13 13 12 10 6 7 15 13 9 8 5 7 11 6 8 8 8 11 17 12 15 16 20 22 23 16 8 7 4 8 9 7 7
19 19 18 17 18 19 18 17 17 16 15 14 13 12 12 4 3 4 10 12 10 3 6 7 8 5 5 7 10 13 16 17 18 19 20 18 15 18 10 9 10 18 6 3 7
19 19 19 18 17 17 18 18 17 17 16 13 12 10 6 3 10 6 10 8 6 3 8 12 8 8 8 8 10 12 13 18 18 17 18 14 18 15 16 1 15 8 7 4 6
20 19 19 19 17 16 17 16 16 16 15 13 10 9 4 5 3 14 11 7 8 9 11 9 8 7 4 6 5 7 10 12 14 14 9 8 14 6 13 7 5 11 12 10 8
20 20 19 18 17 16 15 15 15 16 15 13 9 7 5 15 3 10 11 10 10 13 9 8 9 7 9 10 9 9 10 10 12 7 7 4 12 21 5 7 10 7 7 9 11
20 20 20 18 18 16 15 14 13 15 13 10 6 5 9 7 14 10 10 9 11 9 4 9 7 7 5 8 12 8 8 6 8 9 11 4 20 16 8 8 12 8 7 6 9
21 20 21 19 18 17 15 14 15 12 9 5 3 4 8 5 8 9 6 11 9 9 7 9 2 3 7 6 7 5 9 10 13 13 15 12 24 13 8 8 8 9 4 9 8
22 21 20 19 17 16 15 16 8 3 4 8 8 4 8 7 9 6 7 8 6 3 7 6 4 5 4 3 7 9 9 9 16 18 15 23 24 19 11 10 9 4 4 3 6
25 22 21 19 16 12 10 2 1 1 6 10 7 6 12 3 7 6 8 6 3 6 6 9 4 7 13 15 17 17 17 18 15 11 11 15 7 8 6 6 6 8 7 7 7
26 24 23 21 17 8 3 4 5 8 10 14 21 20 19 6 6 9 7 6 7 8 10 6 11 15 17 19 14 14 16 9 11 11 14 13 10 5 5 5 5 7 8 10 8
25 24 23 22 21 3 6 10 12 7 5 15 16 14 11 8 12 11 12 11 10 9 11 10 11 16 18 13 11 8 8 6 10 15 17 13 11 5 3 5 10 12 9 10 12
25 25 22 25 3 5 8 12 5 6 3 7 7 5 5 7 7 15 11 9 7 13 13 11 11 16 16 11 4 8 8 12 15 10 7 5 7 6 4 8 13 20 17 9 10
25 25 24 10 8 5 7 7 5 4 4 9 6 4 6 8 8 11 13 6 13 13 7 16 12 12 15 13 7 10 6 4 8 14 6 12 3 5 5 15 18 16 21 8 8
25 23 22 3 4 11 15 8 5 1 6 7 8 9 10 13 14 13 9 7 7 7 11 15 13 10 11 16 12 10 3 5 6 3 4 11 5 17 11 15 20 7 10 11 11
29 25 9 6 5 9 12 5 2 4 4 5 2 5 7 10 12 10 11 12 10 7 12 6 9 12 12 7 13 17 4 2 4 1 10 2 5 15 16 19 25 16 12 11 11
32 27 5 8 6 7 4 3 4 9 13 5 10 12 11 13 14 14 14 7 2 5 3 3 12 4 1 3 8 11 3 5 7 5 7 4 7 9 12 19 11 12 11 10 12
26 2 3 5 11 5 3 3 5 6 13 9 11 7 7 17 13 14 12 10 6 11 6 1 6 2 5 6 7 3 6 20 5 5 4 5 7 9 8 19 7 8 10 9 9
6 4 5 9 8 2 1 5 6 9 11 10 5 5 11 14 14 12 10 6 6 9 7 3 6 9 5 8 9 10 2 2 1 3 5 5 6 4 2 7 6 9 6 7 6
1 4 4 4 5 0 3 6 12 11 8 2 7 10 11 13 11 11 9 5 5 4 6 3 3 6 7 2 3 3 2 4 5 5 5 2 5 3 4 3 6 10 10 3 8
5 4 4 3 0 3 3 9 17 17 10 7 5 6 7 10 8 12 13 12 7 3 2 0 4 2 12 14 7 4 6 4 4 8 2 5 8 7 2 4 6 6 14 9 11
6 5 4 4 3 7 7 10 14 12 10 2 3 5 9 9 6 6 7 3 4 0 2 7 1 3 6 0 2 3 6 8 6 3 3 1 5 2 12 2 2 1 6 17 11
4 5 5 2 3 7 10 10 14 14 14 8 6 8 10 7 7 7 10 6 4 3 6 3 3 5 5 8 4 3 9 9 6 4 6 10 13 10 10 9 4 9 12 8 4
3 4 4 5 10 15 13 9 13 14 8 10 7 11 12 5 7 7 10 9 4 10 4 2 3 5 10 13 14 15 17 11 12 15 7 13 12 4 8 2 8 2 6 11 12
4 5 6 8 8 12 9 8 14 10 9 7 5 8 6 7 7 5 7 6 3 7 6 1 3 6 7 12 12 15 18 14 17 19 11 14 11 14 6 8 6 3 7 6 9
4 3 3 5 8 9 8 18 19 8 3 8 10 7 6 10 7 6 5 5 6 5 6 3 2 5 5 10 14 8 10 8 9 7 6 2 10 13 11 9 8 6 7 9 14
Wind_Direction
339 333 334 329 328 328 322 318 315 311 313 311 312 315 319 318 314 277 244 236 194 229 287 285 277 272 226 240 247 257 241 247 246 255 269 278 285 237 198 178 250 258 222 154 111
335 332 327 325 323 321 317 313 311 310 308 309 313 318 319 319 290 249 233 228 191 169 200 229 240 243 224 230 222 211 243 240 247 261 263 274 280 254 273 174 251 274 291 262 104
333 329 328 328 322 319 315 311 309 308 307 310 315 317 319 315 278 244 181 186 170 178 261 283 276 258 221 223 229 236 242 249 255 245 256 265 274 281 213 202 219 214 251 261 117
333 330 327 325 321 316 313 309 306 304 303 308 313 315 311 270 345 149 150 161 164 188 243 258 251 251 271 260 237 241 246 240 249 258 265 267 285 287 288 209 160 226 217 118 84
335 332 327 323 319 316 312 309 306 303 304 304 310 319 319 230 249 143 163 164 147 184 234 242 246 218 220 231 253 255 256 254 258 249 256 271 272 279 283 154 208 114 244 186 133
335 332 328 323 318 315 311 308 305 302 299 298 302 306 235 256 167 156 180 169 235 212 253 259 263 283 275 293 277 260 265 259 262 260 252 252 273 280 276 323 249 174 181 168 238
334 334 331 325 320 315 311 307 303 301 298 295 295 281 261 246 146 174 198 196 220 233 263 294 349 22 339 323 284 297 304 301 284 288 269 345 298 266 278 301 286 251 179 193 197
335 334 332 327 322 314 309 305 301 294 289 280 277 279 254 262 245 225 212 219 235 260 271 299 327 335 315 296 308 308 301 283 290 279 273 185 265 268 252 245 260 251 246 229 200
337 333 332 329 323 318 313 302 301 294 261 216 228 233 260 288 221 222 233 230 231 227 237 256 311 292 311 298 295 277 260 269 272 236 245 205 245 244 239 264 277 260 282 224 180
339 335 331 328 326 321 311 288 292 324 186 188 257 266 263 236 186 217 236 255 266 312 302 226 231 232 276 226 250 266 261 250 250 264 251 235 238 227 215 224 226 247 139 97 158
339 336 332 328 327 328 331 313 280 193 250 213 191 244 299 253 133 184 205 225 256 294 264 276 224 230 236 236 235 245 261 271 275 294 325 315 214 171 229 234 214 204 208 200 205
338 337 334 328 323 323 293 260 309 242 289 228 239 250 258 307 275 205 193 230 207 231 251 266 246 250 249 255 265 278 282 287 309 320 312 299 284 228 224 244 213 231 224 204 202
335 334 333 327 316 253 219 261 297 345 294 293 235 241 224 200 247 258 183 214 226 260 262 251 261 278 276 264 268 291 275 298 290 298 294 299 294 230 254 288 286 268 208 211 193
333 331 334 328 327 300 262 247 312 41 304 253 168 213 186 160 251 225 245 190 212 244 256 263 269 275 278 268 322 290 290 306 328 283 256 322 272 276 277 260 254 248 242 210 189
329 328 326 322 303 295 301 349 28 52 326 154 158 123 165 179 300 201 214 223 226 246 266 268 274 285 293 289 227 270 285 343 330 317 346 302 334 281 274 279 275 271 232 182 127
325 322 326 324 207 249 291 315 2 288 249 185 144 195 200 210 228 245 177 194 219 250 261 273 280 281 309 324 337 235 240 1 332 299 296 268 258 285 260 264 278 256 148 143 124
323 313 300 296 238 311 311 346 342 232 346 5 19 10 336 320 303 275 230 203 202 244 241 307 305 306 324 344 352 22 335 340 313 305 246 151 323 260 314 280 250 228 161 150 137
326 315 207 219 239 278 349 347 255 281 319 319 4 337 307 288 291 303 269 286 18 64 94 174 298 257 360 124 171 307 316 270 229 216 275 329 252 248 305 317 36 138 134 123 128
319 318 239 240 232 257 38 270 251 294 337 2 347 315 341 334 350 345 341 306 48 35 355 276 236 110 224 186 166 162 227 233 357 301 317 229 245 277 350 338 56 86 98 121 141
317 280 251 201 192 77 138 252 291 292 2 10 330 328 339 330 324 332 325 62 15 8 73 11 303 288 337 207 183 198 182 113 239 204 229 252 289 177 342 345 359 352 143 128 116
247 305 207 148 98 106 222 254 282 318 347 13 315 306 305 303 310 321 328 13 30 4 53 58 124 299 319 217 300 345 326 54 292 199 194 272 268 224 98 49 0 335 358 90 132
327 312 209 139 333 218 240 295 355 334 343 360 348 321 340 345 325 326 312 316 121 184 183 197 139 225 275 296 128 271 87 65 234 283 175 138 246 325 141 291 120 290 318 341 354
311 264 252 108 281 315 327 343 327 332 343 308 302 325 343 309 293 287 335 326 85 304 49 178 280 344 302 92 92 159 185 191 198 50 280 190 288 5 340 10 16 99 319 312 342
294 306 346 340 356 13 338 326 324 317 297 18 13 356 306 302 341 310 305 349 90 26 145 146 220 225 229 273 199 298 261 280 186 206 212 227 259 270 246 215 244 215 183 229 348
234 312 41 331 338 322 313 306 292 309 27 34 358 324 317 332 329 312 336 338 338 156 190 64 274 320 307 300 300 295 293 262 253 249 236 265 246 277 51 100 315 3 5 352 318
349 357 348 296 308 318 301 314 338 338 12 336 302 308 342 306 293 335 3 358 316 350 347 107 284 308 295 289 286 302 281 277 263 313 351 342 331 358 47 2 335 331 344 276 255
346 333 297 284 310 332 327 332 322 344 350 321 330 345 332 300 354 331 301 278 271 285 297 321 349 346 272 332 317 298 26 20 348 117 245 18 320 340 342 345 316 255 247 240 242